Time,TemperatureF,DewpointF,PressureIn,WindDirection,WindDirectionDegrees,WindSpeedMPH,WindSpeedGustMPH,Humidity,HourlyPrecipIn,Conditions,Clouds,dailyrainin,SoftwareType,DateUTC
2013-06-17 00:01:00,49.0,44.0,30.46,NNW,330,4.0,5.0,85,-99.99,,,-99.99,,2013-06-17 06:01:00,
2013-06-17 00:06:00,48.0,44.0,30.46,NW,310,6.0,6.0,85,-99.99,,,-99.99,,2013-06-17 06:06:00,
2013-06-17 00:11:00,48.0,44.0,30.46,WNW,290,7.0,7.0,87,-99.99,,,-99.99,,2013-06-17 06:11:00,
2013-06-17 00:21:00,47.0,44.0,30.46,North,350,6.0,8.0,89,-99.99,,,-99.99,,2013-06-17 06:21:00,
2013-06-17 00:26:00,47.0,44.0,30.46,North,0,7.0,7.0,89,-99.99,,,-99.99,,2013-06-17 06:26:00,
2013-06-17 00:31:00,46.0,44.0,30.46,NNE,20,0.0,7.0,90,-99.99,,,-99.99,,2013-06-17 06:31:00,
2013-06-17 00:36:00,46.0,43.0,30.46,NNE,30,6.0,6.0,90,-99.99,,,-99.99,,2013-06-17 06:36:00,
2013-06-17 00:41:00,46.0,43.0,30.46,NW,320,8.0,8.0,91,-99.99,,,-99.99,,2013-06-17 06:41:00,
2013-06-17 00:51:00,46.0,43.0,30.46,NNE,30,5.0,9.0,91,-99.99,,,-99.99,,2013-06-17 06:51:00,
2013-06-17 00:56:00,45.0,43.0,30.46,ENE,60,6.0,6.0,91,-99.99,,,-99.99,,2013-06-17 06:56:00,
2013-06-17 01:01:00,45.0,42.0,30.46,North,0,6.0,7.0,91,-99.99,,,-99.99,,2013-06-17 07:01:00,
2013-06-17 01:06:00,45.0,42.0,30.46,NW,320,8.0,9.0,92,-99.99,,,-99.99,,2013-06-17 07:06:00,
2013-06-17 01:11:00,45.0,43.0,30.46,WNW,300,4.0,9.0,93,-99.99,,,-99.99,,2013-06-17 07:11:00,
2013-06-17 01:16:00,45.0,43.0,30.46,North,350,5.0,7.0,93,-99.99,,,-99.99,,2013-06-17 07:16:00,
2013-06-17 01:26:00,45.0,42.0,30.46,NNW,340,8.0,8.0,92,-99.99,,,-99.99,,2013-06-17 07:26:00,
2013-06-17 01:31:00,44.0,42.0,30.46,NNW,330,8.0,9.0,93,-99.99,,,-99.99,,2013-06-17 07:31:00,
2013-06-17 01:36:00,44.0,42.0,30.46,WNW,300,7.0,9.0,93,-99.99,,,-99.99,,2013-06-17 07:36:00,
2013-06-17 01:46:00,44.0,42.0,30.45,NW,310,4.0,7.0,94,-99.99,,,-99.99,,2013-06-17 07:46:00,
2013-06-17 01:51:00,44.0,42.0,30.45,NNW,340,0.0,5.0,94,-99.99,,,-99.99,,2013-06-17 07:51:00,
2013-06-17 01:56:00,44.0,42.0,30.45,NNE,30,3.0,6.0,94,-99.99,,,-99.99,,2013-06-17 07:56:00,
2013-06-17 02:06:00,44.0,42.0,30.45,NW,310,10.0,10.0,95,-99.99,,,-99.99,,2013-06-17 08:06:00,
2013-06-17 02:11:00,44.0,42.0,30.45,NNE,30,6.0,10.0,95,-99.99,,,-99.99,,2013-06-17 08:11:00,
2013-06-17 02:21:00,44.0,42.0,30.44,NNE,20,4.0,5.0,94,-99.99,,,-99.99,,2013-06-17 08:21:00,
2013-06-17 02:26:00,44.0,42.0,30.44,ENE,70,7.0,7.0,94,-99.99,,,-99.99,,2013-06-17 08:26:00,
2013-06-17 02:31:00,44.0,42.0,30.45,NNE,20,5.0,6.0,94,-99.99,,,-99.99,,2013-06-17 08:31:00,
2013-06-17 02:36:00,43.0,42.0,30.45,NW,320,8.0,9.0,94,-99.99,,,-99.99,,2013-06-17 08:36:00,
2013-06-17 02:41:00,43.0,42.0,30.45,NW,310,8.0,8.0,94,-99.99,,,-99.99,,2013-06-17 08:41:00,
2013-06-17 02:51:00,43.0,42.0,30.45,North,0,6.0,9.0,95,-99.99,,,-99.99,,2013-06-17 08:51:00,
2013-06-17 02:56:00,43.0,42.0,30.44,North,10,5.0,8.0,95,-99.99,,,-99.99,,2013-06-17 08:56:00,
2013-06-17 03:01:00,43.0,41.0,30.45,NE,50,0.0,6.0,94,-99.99,,,-99.99,,2013-06-17 09:01:00,
2013-06-17 03:06:00,43.0,41.0,30.44,North,0,7.0,7.0,94,-99.99,,,-99.99,,2013-06-17 09:06:00,
2013-06-17 03:16:00,42.0,41.0,30.45,NW,310,6.0,10.0,95,-99.99,,,-99.99,,2013-06-17 09:16:00,
2013-06-17 03:26:00,42.0,41.0,30.44,NE,40,0.0,8.0,96,-99.99,,,-99.99,,2013-06-17 09:26:00,
2013-06-17 03:31:00,42.0,41.0,30.44,NNE,30,0.0,4.0,96,-99.99,,,-99.99,,2013-06-17 09:31:00,
2013-06-17 03:36:00,42.0,41.0,30.44,North,0,7.0,7.0,96,-99.99,,,-99.99,,2013-06-17 09:36:00,
2013-06-17 03:46:00,42.0,41.0,30.44,NW,320,7.0,9.0,97,-99.99,,,-99.99,,2013-06-17 09:46:00,
2013-06-17 03:56:00,41.0,40.0,30.44,WNW,300,10.0,10.0,97,-99.99,,,-99.99,,2013-06-17 09:56:00,
2013-06-17 04:01:00,41.0,40.0,30.43,NW,310,7.0,10.0,97,-99.99,,,-99.99,,2013-06-17 10:01:00,
2013-06-17 04:11:00,41.0,41.0,30.44,North,0,7.0,10.0,97,-99.99,,,-99.99,,2013-06-17 10:11:00,
2013-06-17 04:16:00,42.0,41.0,30.44,North,0,6.0,9.0,97,-99.99,,,-99.99,,2013-06-17 10:16:00,
2013-06-17 04:21:00,42.0,41.0,30.44,NNW,330,9.0,10.0,96,-99.99,,,-99.99,,2013-06-17 10:21:00,
2013-06-17 04:31:00,41.0,40.0,30.44,NNW,340,6.0,6.0,96,-99.99,,,-99.99,,2013-06-17 10:31:00,
2013-06-17 04:41:00,41.0,40.0,30.44,NNW,330,7.0,8.0,97,-99.99,,,-99.99,,2013-06-17 10:41:00,
2013-06-17 04:51:00,40.0,39.0,30.45,NE,50,3.0,6.0,97,-99.99,,,-99.99,,2013-06-17 10:51:00,
2013-06-17 04:56:00,40.0,39.0,30.44,NNW,340,6.0,6.0,97,-99.99,,,-99.99,,2013-06-17 10:56:00,
2013-06-17 05:01:00,40.0,39.0,30.45,NW,310,7.0,8.0,98,-99.99,,,-99.99,,2013-06-17 11:01:00,
2013-06-17 05:06:00,40.0,39.0,30.45,NNW,330,8.0,9.0,98,-99.99,,,-99.99,,2013-06-17 11:06:00,
2013-06-17 05:11:00,40.0,39.0,30.45,NNW,340,7.0,10.0,98,-99.99,,,-99.99,,2013-06-17 11:11:00,
2013-06-17 05:16:00,40.0,39.0,30.45,North,0,7.0,9.0,98,-99.99,,,-99.99,,2013-06-17 11:16:00,
2013-06-17 05:21:00,39.0,39.0,30.45,NNE,30,4.0,7.0,98,-99.99,,,-99.99,,2013-06-17 11:21:00,
2013-06-17 05:26:00,39.0,39.0,30.45,North,10,5.0,6.0,98,-99.99,,,-99.99,,2013-06-17 11:26:00,
2013-06-17 05:36:00,39.0,38.0,30.45,North,0,6.0,6.0,98,-99.99,,,-99.99,,2013-06-17 11:36:00,
2013-06-17 05:46:00,39.0,39.0,30.45,NNW,330,6.0,10.0,98,-99.99,,,-99.99,,2013-06-17 11:46:00,
2013-06-17 05:56:00,39.0,39.0,30.45,North,0,5.0,8.0,98,-99.99,,,-99.99,,2013-06-17 11:56:00,
2013-06-17 06:06:00,39.0,38.0,30.45,NNE,30,0.0,7.0,98,-99.99,,,-99.99,,2013-06-17 12:06:00,
2013-06-17 06:11:00,38.0,38.0,30.45,NNE,30,0.0,0.0,98,-99.99,,,-99.99,,2013-06-17 12:11:00,
2013-06-17 06:21:00,38.0,38.0,30.45,NNW,330,8.0,9.0,99,-99.99,,,-99.99,,2013-06-17 12:21:00,
2013-06-17 06:31:00,39.0,38.0,30.45,NNW,340,11.0,11.0,99,-99.99,,,-99.99,,2013-06-17 12:31:00,
2013-06-17 06:41:00,39.0,39.0,30.45,NNW,340,6.0,7.0,98,-99.99,,,-99.99,,2013-06-17 12:41:00,
2013-06-17 06:46:00,40.0,39.0,30.45,North,0,6.0,9.0,98,-99.99,,,-99.99,,2013-06-17 12:46:00,
2013-06-17 06:51:00,40.0,40.0,30.45,NNW,340,7.0,8.0,98,-99.99,,,-99.99,,2013-06-17 12:51:00,
2013-06-17 06:56:00,41.0,40.0,30.45,NW,310,3.0,8.0,98,-99.99,,,-99.99,,2013-06-17 12:56:00,
2013-06-17 07:01:00,42.0,41.0,30.45,North,10,7.0,8.0,97,-99.99,,,-99.99,,2013-06-17 13:01:00,
2013-06-17 07:11:00,42.0,41.0,30.45,NNW,330,9.0,10.0,96,-99.99,,,-99.99,,2013-06-17 13:11:00,
2013-06-17 07:16:00,43.0,41.0,30.45,WNW,300,7.0,9.0,96,-99.99,,,-99.99,,2013-06-17 13:16:00,
2013-06-17 07:21:00,43.0,42.0,30.45,NW,310,7.0,8.0,96,-99.99,,,-99.99,,2013-06-17 13:21:00,
2013-06-17 07:31:00,43.0,42.0,30.45,WNW,300,9.0,10.0,95,-99.99,,,-99.99,,2013-06-17 13:31:00,
2013-06-17 07:36:00,44.0,42.0,30.45,North,350,6.0,11.0,95,-99.99,,,-99.99,,2013-06-17 13:36:00,
2013-06-17 07:41:00,44.0,43.0,30.46,NW,310,3.0,7.0,94,-99.99,,,-99.99,,2013-06-17 13:41:00,
2013-06-17 07:51:00,46.0,43.0,30.46,NNW,330,0.0,7.0,93,-99.99,,,-99.99,,2013-06-17 13:51:00,
2013-06-17 08:01:00,47.0,44.0,30.46,WNW,300,0.0,4.0,91,-99.99,,,-99.99,,2013-06-17 14:01:00,
2013-06-17 08:11:00,48.0,45.0,30.46,WNW,300,0.0,0.0,89,-99.99,,,-99.99,,2013-06-17 14:11:00,
2013-06-17 08:21:00,50.0,45.0,30.46,WNW,300,0.0,0.0,84,-99.99,,,-99.99,,2013-06-17 14:21:00,
2013-06-17 08:26:00,51.0,45.0,30.46,WNW,300,0.0,0.0,81,-99.99,,,-99.99,,2013-06-17 14:26:00,
2013-06-17 08:36:00,53.0,45.0,30.46,WNW,300,0.0,0.0,74,-99.99,,,-99.99,,2013-06-17 14:36:00,
2013-06-17 08:46:00,55.0,46.0,30.46,WNW,300,0.0,0.0,70,-99.99,,,-99.99,,2013-06-17 14:46:00,
2013-06-17 08:51:00,56.0,45.0,30.46,WNW,290,4.0,7.0,66,-99.99,,,-99.99,,2013-06-17 14:51:00,
2013-06-17 08:56:00,56.0,44.0,30.46,WNW,290,0.0,7.0,65,-99.99,,,-99.99,,2013-06-17 14:56:00,
2013-06-17 09:06:00,58.0,44.0,30.46,WNW,290,0.0,0.0,60,-99.99,,,-99.99,,2013-06-17 15:06:00,
2013-06-17 09:11:00,59.0,45.0,30.46,WNW,290,0.0,0.0,59,-99.99,,,-99.99,,2013-06-17 15:11:00,
2013-06-17 09:16:00,59.0,45.0,30.46,WNW,290,0.0,0.0,59,-99.99,,,-99.99,,2013-06-17 15:16:00,
2013-06-17 09:21:00,59.0,45.0,30.46,WNW,290,0.0,0.0,59,-99.99,,,-99.99,,2013-06-17 15:21:00,
2013-06-17 09:31:00,59.0,44.0,30.46,WNW,290,0.0,0.0,56,-99.99,,,-99.99,,2013-06-17 15:31:00,
2013-06-17 09:41:00,61.0,43.0,30.46,WNW,290,0.0,0.0,53,-99.99,,,-99.99,,2013-06-17 15:41:00,
2013-06-17 09:46:00,62.0,44.0,30.45,WNW,290,0.0,0.0,52,-99.99,,,-99.99,,2013-06-17 15:46:00,
2013-06-17 09:56:00,63.0,43.0,30.45,WNW,290,0.0,0.0,48,-99.99,,,-99.99,,2013-06-17 15:56:00,
2013-06-17 10:01:00,64.0,43.0,30.45,WNW,290,0.0,0.0,48,-99.99,,,-99.99,,2013-06-17 16:01:00,
2013-06-17 10:06:00,64.0,44.0,30.45,WNW,290,0.0,0.0,49,-99.99,,,-99.99,,2013-06-17 16:06:00,
2013-06-17 10:11:00,64.0,46.0,30.45,WNW,290,0.0,0.0,51,-99.99,,,-99.99,,2013-06-17 16:11:00,
2013-06-17 10:16:00,65.0,45.0,30.45,WNW,290,0.0,0.0,49,-99.99,,,-99.99,,2013-06-17 16:16:00,
2013-06-17 10:26:00,66.0,46.0,30.45,WNW,290,0.0,0.0,48,-99.99,,,-99.99,,2013-06-17 16:26:00,
2013-06-17 10:31:00,66.0,46.0,30.45,South,190,0.0,4.0,50,-99.99,,,-99.99,,2013-06-17 16:31:00,
2013-06-17 10:36:00,66.0,45.0,30.45,South,190,0.0,0.0,47,-99.99,,,-99.99,,2013-06-17 16:36:00,
2013-06-17 10:46:00,67.0,46.0,30.44,South,190,0.0,0.0,47,-99.99,,,-99.99,,2013-06-17 16:46:00,
2013-06-17 10:51:00,67.0,46.0,30.44,South,190,0.0,2.0,46,-99.99,,,-99.99,,2013-06-17 16:51:00,
2013-06-17 10:56:00,68.0,46.0,30.44,SSW,210,0.0,5.0,46,-99.99,,,-99.99,,2013-06-17 16:56:00,
2013-06-17 11:01:00,69.0,46.0,30.44,South,190,0.0,3.0,45,-99.99,,,-99.99,,2013-06-17 17:01:00,
2013-06-17 11:11:00,70.0,43.0,30.44,East,100,0.0,8.0,37,-99.99,,,-99.99,,2013-06-17 17:11:00,
2013-06-17 11:21:00,70.0,46.0,30.44,South,170,7.0,9.0,42,-99.99,,,-99.99,,2013-06-17 17:21:00,
2013-06-17 11:26:00,70.0,43.0,30.44,South,170,8.0,9.0,38,-99.99,,,-99.99,,2013-06-17 17:26:00,
2013-06-17 11:31:00,69.0,44.0,30.44,South,170,5.0,11.0,41,-99.99,,,-99.99,,2013-06-17 17:31:00,
2013-06-17 11:36:00,68.0,45.0,30.44,SE,140,6.0,8.0,43,-99.99,,,-99.99,,2013-06-17 17:36:00,
2013-06-17 11:41:00,68.0,43.0,30.44,South,170,9.0,13.0,40,-99.99,,,-99.99,,2013-06-17 17:41:00,
2013-06-17 11:51:00,68.0,41.0,30.42,SSE,160,5.0,7.0,37,-99.99,,,-99.99,,2013-06-17 17:51:00,
2013-06-17 12:01:00,71.0,36.0,30.42,SSE,150,9.0,16.0,27,-99.99,,,-99.99,,2013-06-17 18:01:00,
2013-06-17 12:06:00,72.0,37.0,30.42,South,170,15.0,21.0,28,-99.99,,,-99.99,,2013-06-17 18:06:00,
2013-06-17 12:11:00,73.0,38.0,30.43,South,190,3.0,16.0,28,-99.99,,,-99.99,,2013-06-17 18:11:00,
2013-06-17 12:16:00,73.0,36.0,30.43,NE,50,6.0,9.0,26,-99.99,,,-99.99,,2013-06-17 18:16:00,
2013-06-17 12:21:00,71.0,36.0,30.44,ENE,70,13.0,16.0,27,-99.99,,,-99.99,,2013-06-17 18:21:00,
2013-06-17 12:26:00,69.0,37.0,30.43,NE,50,8.0,17.0,31,-99.99,,,-99.99,,2013-06-17 18:26:00,
2013-06-17 12:36:00,70.0,38.0,30.43,North,10,0.0,9.0,31,-99.99,,,-99.99,,2013-06-17 18:36:00,
2013-06-17 12:41:00,71.0,39.0,30.42,NNE,20,3.0,7.0,31,-99.99,,,-99.99,,2013-06-17 18:41:00,
2013-06-17 12:46:00,72.0,38.0,30.42,North,10,0.0,6.0,29,-99.99,,,-99.99,,2013-06-17 18:46:00,
2013-06-17 12:51:00,72.0,38.0,30.42,East,100,3.0,5.0,29,-99.99,,,-99.99,,2013-06-17 18:51:00,
2013-06-17 13:01:00,73.0,38.0,30.41,NNW,340,0.0,6.0,29,-99.99,,,-99.99,,2013-06-17 19:01:00,
2013-06-17 13:11:00,72.0,33.0,30.41,South,170,7.0,10.0,24,-99.99,,,-99.99,,2013-06-17 19:11:00,
2013-06-17 13:21:00,71.0,37.0,30.41,South,180,7.0,9.0,28,-99.99,,,-99.99,,2013-06-17 19:21:00,
2013-06-17 13:26:00,71.0,35.0,30.41,SSE,160,0.0,7.0,27,-99.99,,,-99.99,,2013-06-17 19:26:00,
2013-06-17 13:36:00,70.0,34.0,30.40,NE,50,5.0,6.0,28,-99.99,,,-99.99,,2013-06-17 19:36:00,
2013-06-17 13:41:00,69.0,36.0,30.40,NE,40,5.0,11.0,30,-99.99,,,-99.99,,2013-06-17 19:41:00,
2013-06-17 13:46:00,69.0,34.0,30.40,East,90,2.0,8.0,28,-99.99,,,-99.99,,2013-06-17 19:46:00,
2013-06-17 13:56:00,70.0,34.0,30.39,East,90,0.0,8.0,26,-99.99,,,-99.99,,2013-06-17 19:56:00,
2013-06-17 14:06:00,72.0,34.0,30.39,NNE,30,0.0,4.0,24,-99.99,,,-99.99,,2013-06-17 20:06:00,
2013-06-17 14:16:00,73.0,35.0,30.38,North,10,4.0,6.0,25,-99.99,,,-99.99,,2013-06-17 20:16:00,
2013-06-17 14:26:00,74.0,37.0,30.37,SSE,160,0.0,5.0,26,-99.99,,,-99.99,,2013-06-17 20:26:00,
2013-06-17 14:31:00,75.0,35.0,30.37,NNE,20,0.0,6.0,23,-99.99,,,-99.99,,2013-06-17 20:31:00,
2013-06-17 14:36:00,76.0,33.0,30.37,West,260,4.0,9.0,21,-99.99,,,-99.99,,2013-06-17 20:36:00,
2013-06-17 14:41:00,76.0,33.0,30.37,NW,310,5.0,12.0,21,-99.99,,,-99.99,,2013-06-17 20:41:00,
2013-06-17 14:51:00,75.0,33.0,30.37,NNE,30,0.0,11.0,21,-99.99,,,-99.99,,2013-06-17 20:51:00,
2013-06-17 14:56:00,75.0,31.0,30.36,NE,40,0.0,10.0,19,-99.99,,,-99.99,,2013-06-17 20:56:00,
2013-06-17 15:01:00,75.0,30.0,30.36,NE,50,4.0,8.0,19,-99.99,,,-99.99,,2013-06-17 21:01:00,
2013-06-17 15:11:00,74.0,32.0,30.36,NNE,30,6.0,9.0,21,-99.99,,,-99.99,,2013-06-17 21:11:00,
2013-06-17 15:16:00,74.0,31.0,30.36,NNW,340,0.0,11.0,20,-99.99,,,-99.99,,2013-06-17 21:16:00,
2013-06-17 15:26:00,73.0,37.0,30.37,SSW,200,10.0,10.0,27,-99.99,,,-99.99,,2013-06-17 21:26:00,
2013-06-17 15:36:00,71.0,33.0,30.37,SSW,210,29.0,29.0,25,-99.99,,,-99.99,,2013-06-17 21:36:00,
2013-06-17 15:46:00,69.0,34.0,30.38,SW,230,21.0,27.0,28,-99.99,,,-99.99,,2013-06-17 21:46:00,
2013-06-17 15:51:00,71.0,37.0,30.37,SW,230,14.0,24.0,29,-99.99,,,-99.99,,2013-06-17 21:51:00,
2013-06-17 16:01:00,74.0,36.0,30.37,South,180,8.0,10.0,25,-99.99,,,-99.99,,2013-06-17 22:01:00,
2013-06-17 16:11:00,74.0,34.0,30.37,East,80,6.0,11.0,23,-99.99,,,-99.99,,2013-06-17 22:11:00,
2013-06-17 16:21:00,72.0,35.0,30.37,South,170,14.0,15.0,26,-99.99,,,-99.99,,2013-06-17 22:21:00,
2013-06-17 16:26:00,71.0,37.0,30.38,South,170,19.0,22.0,29,-99.99,,,-99.99,,2013-06-17 22:26:00,
2013-06-17 16:31:00,69.0,37.0,30.37,South,190,22.0,22.0,30,-99.99,,,-99.99,,2013-06-17 22:31:00,
2013-06-17 16:36:00,69.0,37.0,30.38,South,190,16.0,28.0,32,-99.99,,,-99.99,,2013-06-17 22:36:00,
2013-06-17 16:46:00,69.0,37.0,30.38,South,170,11.0,15.0,32,-99.99,,,-99.99,,2013-06-17 22:46:00,
2013-06-17 16:56:00,70.0,37.0,30.38,SSE,150,0.0,0.0,30,-99.99,,,-99.99,,2013-06-17 22:56:00,
2013-06-17 17:01:00,70.0,33.0,30.38,NNW,330,0.0,5.0,26,-99.99,,,-99.99,,2013-06-17 23:01:00,
2013-06-17 17:11:00,72.0,34.0,30.38,West,280,8.0,9.0,26,-99.99,,,-99.99,,2013-06-17 23:11:00,
2013-06-17 17:21:00,72.0,35.0,30.38,WSW,240,7.0,11.0,26,-99.99,,,-99.99,,2013-06-17 23:21:00,
2013-06-17 17:31:00,73.0,36.0,30.37,SW,230,6.0,8.0,26,-99.99,,,-99.99,,2013-06-17 23:31:00,
2013-06-17 17:36:00,73.0,36.0,30.38,WSW,240,0.0,6.0,26,-99.99,,,-99.99,,2013-06-17 23:36:00,
2013-06-17 17:46:00,73.0,38.0,30.38,South,180,17.0,17.0,29,-99.99,,,-99.99,,2013-06-17 23:46:00,
2013-06-17 17:56:00,71.0,37.0,30.38,South,180,14.0,22.0,30,-99.99,,,-99.99,,2013-06-17 23:56:00,
2013-06-17 18:01:00,70.0,37.0,30.38,SW,220,17.0,18.0,30,-99.99,,,-99.99,,2013-06-18 00:01:00,
2013-06-17 18:11:00,68.0,36.0,30.38,SW,230,8.0,15.0,31,-99.99,,,-99.99,,2013-06-18 00:11:00,
2013-06-17 18:21:00,67.0,37.0,30.37,SW,220,7.0,12.0,32,-99.99,,,-99.99,,2013-06-18 00:21:00,
2013-06-17 18:26:00,68.0,38.0,30.37,South,180,5.0,9.0,33,-99.99,,,-99.99,,2013-06-18 00:26:00,
2013-06-17 18:31:00,69.0,38.0,30.37,South,180,3.0,9.0,33,-99.99,,,-99.99,,2013-06-18 00:31:00,
2013-06-17 18:36:00,69.0,37.0,30.37,SSE,160,11.0,12.0,31,-99.99,,,-99.99,,2013-06-18 00:36:00,
2013-06-17 18:41:00,68.0,38.0,30.37,South,170,16.0,16.0,33,-99.99,,,-99.99,,2013-06-18 00:41:00,
2013-06-17 18:46:00,68.0,38.0,30.37,South,180,12.0,15.0,33,-99.99,,,-99.99,,2013-06-18 00:46:00,
2013-06-17 18:51:00,68.0,38.0,30.37,SSE,160,7.0,12.0,34,-99.99,,,-99.99,,2013-06-18 00:51:00,
2013-06-17 18:56:00,67.0,37.0,30.37,SSE,160,4.0,11.0,33,-99.99,,,-99.99,,2013-06-18 00:56:00,
2013-06-17 19:01:00,67.0,39.0,30.37,WNW,290,5.0,8.0,36,-99.99,,,-99.99,,2013-06-18 01:01:00,
2013-06-17 19:06:00,66.0,38.0,30.37,North,10,0.0,9.0,35,-99.99,,,-99.99,,2013-06-18 01:06:00,
2013-06-17 19:11:00,66.0,38.0,30.37,North,10,0.0,0.0,35,-99.99,,,-99.99,,2013-06-18 01:11:00,
2013-06-17 19:16:00,66.0,39.0,30.37,North,10,0.0,0.0,37,-99.99,,,-99.99,,2013-06-18 01:16:00,
2013-06-17 19:26:00,66.0,39.0,30.37,NW,320,7.0,7.0,36,-99.99,,,-99.99,,2013-06-18 01:26:00,
2013-06-17 19:36:00,66.0,40.0,30.37,WNW,290,7.0,7.0,38,-99.99,,,-99.99,,2013-06-18 01:36:00,
2013-06-17 19:41:00,66.0,38.0,30.37,West,280,8.0,8.0,37,-99.99,,,-99.99,,2013-06-18 01:41:00,
2013-06-17 19:51:00,64.0,39.0,30.38,WNW,300,4.0,9.0,40,-99.99,,,-99.99,,2013-06-18 01:51:00,
2013-06-17 19:56:00,64.0,40.0,30.38,NW,320,0.0,5.0,41,-99.99,,,-99.99,,2013-06-18 01:56:00,
2013-06-17 20:01:00,63.0,41.0,30.39,NW,320,0.0,0.0,44,-99.99,,,-99.99,,2013-06-18 02:01:00,
2013-06-17 20:06:00,63.0,41.0,30.39,NW,320,0.0,0.0,45,-99.99,,,-99.99,,2013-06-18 02:06:00,
2013-06-17 20:16:00,62.0,41.0,30.39,NW,320,0.0,0.0,46,-99.99,,,-99.99,,2013-06-18 02:16:00,
2013-06-17 20:26:00,61.0,40.0,30.39,NW,320,0.0,0.0,46,-99.99,,,-99.99,,2013-06-18 02:26:00,
2013-06-17 20:36:00,59.0,41.0,30.39,NW,320,0.0,0.0,51,-99.99,,,-99.99,,2013-06-18 02:36:00,
2013-06-17 20:41:00,58.0,41.0,30.39,NW,320,0.0,0.0,53,-99.99,,,-99.99,,2013-06-18 02:41:00,
2013-06-17 20:46:00,58.0,42.0,30.39,NW,320,0.0,0.0,55,-99.99,,,-99.99,,2013-06-18 02:46:00,
2013-06-17 20:51:00,57.0,41.0,30.39,NW,320,0.0,0.0,55,-99.99,,,-99.99,,2013-06-18 02:51:00,
2013-06-17 21:01:00,56.0,39.0,30.39,WSW,250,4.0,5.0,53,-99.99,,,-99.99,,2013-06-18 03:01:00,
2013-06-17 21:06:00,56.0,39.0,30.39,SW,220,0.0,5.0,53,-99.99,,,-99.99,,2013-06-18 03:06:00,
2013-06-17 21:11:00,56.0,40.0,30.39,SW,220,0.0,0.0,55,-99.99,,,-99.99,,2013-06-18 03:11:00,
2013-06-17 21:16:00,55.0,40.0,30.40,NNW,340,0.0,3.0,56,-99.99,,,-99.99,,2013-06-18 03:16:00,
2013-06-17 21:26:00,54.0,40.0,30.40,North,350,2.0,4.0,59,-99.99,,,-99.99,,2013-06-18 03:26:00,
2013-06-17 21:36:00,53.0,41.0,30.40,NNW,330,3.0,8.0,63,-99.99,,,-99.99,,2013-06-18 03:36:00,
2013-06-17 21:46:00,52.0,41.0,30.40,North,0,4.0,7.0,67,-99.99,,,-99.99,,2013-06-18 03:46:00,
2013-06-17 21:51:00,52.0,42.0,30.41,North,0,5.0,7.0,68,-99.99,,,-99.99,,2013-06-18 03:51:00,
2013-06-17 21:56:00,52.0,42.0,30.41,NE,40,2.0,7.0,68,-99.99,,,-99.99,,2013-06-18 03:56:00,
2013-06-17 22:01:00,51.0,41.0,30.41,NNE,30,3.0,8.0,67,-99.99,,,-99.99,,2013-06-18 04:01:00,
2013-06-17 22:06:00,51.0,41.0,30.42,West,280,0.0,4.0,68,-99.99,,,-99.99,,2013-06-18 04:06:00,
2013-06-17 22:11:00,51.0,41.0,30.42,West,280,0.0,2.0,69,-99.99,,,-99.99,,2013-06-18 04:11:00,
2013-06-17 22:16:00,51.0,41.0,30.42,North,10,3.0,3.0,69,-99.99,,,-99.99,,2013-06-18 04:16:00,
2013-06-17 22:21:00,50.0,41.0,30.42,NNE,30,0.0,7.0,71,-99.99,,,-99.99,,2013-06-18 04:21:00,
2013-06-17 22:26:00,50.0,41.0,30.42,NW,320,10.0,11.0,71,-99.99,,,-99.99,,2013-06-18 04:26:00,
2013-06-17 22:36:00,50.0,41.0,30.42,West,280,6.0,8.0,71,-99.99,,,-99.99,,2013-06-18 04:36:00,
2013-06-17 22:41:00,49.0,41.0,30.42,NE,50,2.0,6.0,73,-99.99,,,-99.99,,2013-06-18 04:41:00,
2013-06-17 22:46:00,49.0,41.0,30.42,NNW,340,8.0,8.0,73,-99.99,,,-99.99,,2013-06-18 04:46:00,
2013-06-17 22:56:00,49.0,40.0,30.42,NNE,20,6.0,9.0,73,-99.99,,,-99.99,,2013-06-18 04:56:00,
2013-06-17 23:01:00,49.0,41.0,30.42,NE,40,4.0,6.0,74,-99.99,,,-99.99,,2013-06-18 05:01:00,
2013-06-17 23:06:00,48.0,41.0,30.42,NNW,330,5.0,6.0,75,-99.99,,,-99.99,,2013-06-18 05:06:00,
2013-06-17 23:11:00,48.0,41.0,30.42,NW,320,6.0,10.0,77,-99.99,,,-99.99,,2013-06-18 05:11:00,
2013-06-17 23:21:00,47.0,41.0,30.42,North,350,3.0,9.0,79,-99.99,,,-99.99,,2013-06-18 05:21:00,
2013-06-17 23:26:00,47.0,41.0,30.42,NW,320,9.0,11.0,81,-99.99,,,-99.99,,2013-06-18 05:26:00,
2013-06-17 23:36:00,46.0,41.0,30.42,NW,320,8.0,11.0,83,-99.99,,,-99.99,,2013-06-18 05:36:00,
2013-06-17 23:41:00,46.0,41.0,30.42,WNW,300,7.0,8.0,83,-99.99,,,-99.99,,2013-06-18 05:41:00,
2013-06-17 23:46:00,46.0,41.0,30.42,WNW,300,9.0,11.0,84,-99.99,,,-99.99,,2013-06-18 05:46:00,
2013-06-17 23:51:00,45.0,41.0,30.42,NW,320,10.0,12.0,85,-99.99,,,-99.99,,2013-06-18 05:51:00,